Preview of NWS' New Version of Forecast
This preview is not operational and should not be used for support decisions.

Regional Weather Roundup (RWR)

Issued by National Weather Service (NWS)

                            
000
ASUS43 KBIS 182210
RWRND 

NORTH DAKOTA REGIONAL WEATHER ROUNDUP
NATIONAL WEATHER SERVICE BISMARCK ND
500 PM CDT THU APR 18 2019

NOTE: "FAIR" INDICATES FEW OR NO CLOUDS BELOW 12,000 FEET WITH NO
SIGNIFICANT WEATHER AND/OR OBSTRUCTIONS TO VISIBILITY.


NDZ001>003-009>011-017-182300-
NORTHWEST NORTH DAKOTA
  
CITY           SKY/WX    TMP DP  RH WIND       PRES   REMARKS
WILLISTON      MOSUNNY   62  24  23 N14G23    30.05F                  
MINOT          PTSUNNY   60  35  39 NW9G16    30.03F                  
MINOT AFB      MOSUNNY   55  35  47 NW10      30.02F                  
$$
 
NDZ018>021-031>035-040>046-182300-
SOUTHWEST NORTH DAKOTA
  
CITY           SKY/WX    TMP DP  RH WIND       PRES   REMARKS
BISMARCK       MOSUNNY   56  38  50 NW13      30.06F                  
DICKINSON      PTSUNNY   59  24  26 NW15G28   30.04F                  
GARRISON         N/A     56  35  45 NW13      30.04F                  
HETTINGER ARPT MOSUNNY   58  21  24 NW20G32   30.07S                  
$$
 
NDZ004>008-012>016-024-026-027-054-182300-
NORTHEAST NORTH DAKOTA
  
CITY           SKY/WX    TMP DP  RH WIND       PRES   REMARKS
GRAND FORKS    MOSUNNY   57  35  43 N12       29.99S                  
GRND FRKS AFB  MOSUNNY   57  34  41 N12       30.02S                  
DEVILS LAKE    CLOUDY    53  38  56 W18       30.03S                  
$$
 
NDZ022-023-025-028>030-036>039-047>053-182300-
SOUTHEAST NORTH DAKOTA
  
CITY           SKY/WX    TMP DP  RH WIND       PRES   REMARKS
FARGO          SUNNY     56  39  53 N18       29.98R                  
JAMESTOWN      PTSUNNY   59  34  39 NW14      30.00S                  
$$